CNK1 CYYC-CYEG

Flight info

Callsign CNK1
Flight time 0h 29m
Altitude 26000
Route BITGA Q995 OILRS OILRS2
Aircraft GLF6/M-SFGHIRWXY/S

Departure

Time 2026-04-28 23:22
Airport Calgary International Airport (CYYC)

Arrival

Time 2026-04-28 23:51
Airport Edmonton International Airport (CYEG)
Time Latitude Longitude Altitude Speed Heading
2026-04-28 22:49 51.12887 -114.02623 3549 ft 0 kts
2026-04-28 23:10 51.12893 -114.02623 3549 ft 3 kts
2026-04-28 23:11 51.12927 -114.02612 3549 ft 4 kts 17°
2026-04-28 23:11 51.12956 -114.02595 3550 ft 4 kts 23°
2026-04-28 23:11 51.12977 -114.02574 3550 ft 3 kts 46°
2026-04-28 23:11 51.12978 -114.02573 3550 ft 0 kts 46°
2026-04-28 23:14 51.12986 -114.02551 3550 ft 5 kts 66°
2026-04-28 23:15 51.12984 -114.02437 3550 ft 14 kts 126°
2026-04-28 23:15 51.12854 -114.02415 3551 ft 24 kts 180°
2026-04-28 23:15 51.12696 -114.02417 3551 ft 21 kts 179°
2026-04-28 23:15 51.12540 -114.02419 3551 ft 23 kts 181°
2026-04-28 23:16 51.12384 -114.02421 3551 ft 21 kts 178°
2026-04-28 23:16 51.12235 -114.02419 3551 ft 20 kts 180°
2026-04-28 23:16 51.12091 -114.02418 3551 ft 19 kts 180°
2026-04-28 23:16 51.11951 -114.02421 3550 ft 20 kts 180°
2026-04-28 23:17 51.11811 -114.02420 3549 ft 21 kts 180°
2026-04-28 23:17 51.11655 -114.02419 3549 ft 23 kts 180°
2026-04-28 23:17 51.11494 -114.02419 3546 ft 23 kts 180°
2026-04-28 23:17 51.11327 -114.02418 3545 ft 24 kts 179°
2026-04-28 23:18 51.11157 -114.02418 3543 ft 24 kts 180°
2026-04-28 23:18 51.10980 -114.02419 3541 ft 25 kts 179°
2026-04-28 23:18 51.10796 -114.02421 3539 ft 26 kts 185°
2026-04-28 23:18 51.10615 -114.02498 3538 ft 27 kts 199°
2026-04-28 23:19 51.10425 -114.02577 3537 ft 28 kts 182°
2026-04-28 23:19 51.10236 -114.02580 3537 ft 26 kts 179°
2026-04-28 23:19 51.10059 -114.02580 3539 ft 24 kts 181°
2026-04-28 23:19 51.09893 -114.02580 3539 ft 22 kts 177°
2026-04-28 23:20 51.09809 -114.02482 3540 ft 0 kts 116°
2026-04-28 23:20 51.09809 -114.02481 3540 ft 0 kts 116°
2026-04-28 23:21 51.09806 -114.02471 3540 ft 4 kts 117°
2026-04-28 23:21 51.09772 -114.02367 3541 ft 17 kts 117°
2026-04-28 23:21 51.09720 -114.02197 3542 ft 11 kts 99°
2026-04-28 23:21 51.09802 -114.02138 3542 ft 23 kts 358°
2026-04-28 23:22 51.10283 -114.02139 3542 ft 117 kts 360°
2026-04-28 23:22 51.11171 -114.02113 4326 ft 131 kts
2026-04-28 23:22 51.12045 -114.02108 5334 ft 135 kts 359°
2026-04-28 23:22 51.13167 -114.02141 5533 ft 194 kts 359°
2026-04-28 23:23 51.14607 -114.02193 6250 ft 216 kts 359°
2026-04-28 23:23 51.16174 -114.02229 6894 ft 254 kts 359°
2026-04-28 23:23 51.18050 -114.02250 7955 ft 279 kts 359°
2026-04-28 23:23 51.19907 -114.02221 9756 ft 273 kts 359°
2026-04-28 23:24 51.21808 -114.02136 11165 ft 282 kts 359°
2026-04-28 23:24 51.23709 -114.02034 12833 ft 281 kts 359°
2026-04-28 23:24 51.25617 -114.01827 14368 ft 287 kts
2026-04-28 23:24 51.27370 -114.00368 15756 ft 297 kts 35°
2026-04-28 23:25 51.28936 -113.98267 17210 ft 302 kts 32°
2026-04-28 23:25 51.30738 -113.96601 18693 ft 303 kts 21°
2026-04-28 23:25 51.32662 -113.95424 20201 ft 303 kts 15°
2026-04-28 23:25 51.34640 -113.94486 21723 ft 304 kts 12°
2026-04-28 23:26 51.36645 -113.93686 23252 ft 303 kts 10°
2026-04-28 23:26 51.38654 -113.92959 24766 ft 301 kts
2026-04-28 23:26 51.40680 -113.92266 25931 ft 310 kts
2026-04-28 23:26 51.42942 -113.91523 25989 ft 345 kts
2026-04-28 23:27 51.45311 -113.90747 25978 ft 356 kts
2026-04-28 23:27 51.47862 -113.89922 26002 ft 393 kts
2026-04-28 23:27 51.50638 -113.89060 25983 ft 414 kts
2026-04-28 23:27 51.53478 -113.89153 25988 ft 409 kts 354°
2026-04-28 23:28 51.56332 -113.89053 25979 ft 406 kts
2026-04-28 23:28 51.59124 -113.88561 25992 ft 405 kts
2026-04-28 23:28 51.61893 -113.87912 26040 ft 405 kts
2026-04-28 23:28 51.64666 -113.87196 26037 ft 406 kts
2026-04-28 23:29 51.67440 -113.86451 26047 ft 407 kts
2026-04-28 23:29 51.70222 -113.85692 26042 ft 407 kts
2026-04-28 23:29 51.73000 -113.84930 26035 ft 406 kts
2026-04-28 23:29 51.75777 -113.84164 26042 ft 406 kts
2026-04-28 23:30 51.78554 -113.83399 26049 ft 407 kts
2026-04-28 23:30 51.81334 -113.82630 26043 ft 408 kts
2026-04-28 23:30 51.84121 -113.81860 26046 ft 408 kts
2026-04-28 23:30 51.86909 -113.81087 26041 ft 407 kts
2026-04-28 23:31 51.89720 -113.80307 26045 ft 407 kts
2026-04-28 23:31 51.92501 -113.79534 26052 ft 407 kts
2026-04-28 23:31 51.95256 -113.78767 26046 ft 394 kts
2026-04-28 23:31 51.97884 -113.78033 26033 ft 377 kts
2026-04-28 23:32 52.00468 -113.77315 26043 ft 376 kts
2026-04-28 23:32 52.03048 -113.76596 25950 ft 382 kts
2026-04-28 23:32 52.05656 -113.75867 25424 ft 383 kts
2026-04-28 23:32 52.08255 -113.75140 24844 ft 378 kts
2026-04-28 23:33 52.10820 -113.74421 24257 ft 372 kts
2026-04-28 23:33 52.13340 -113.73714 23680 ft 368 kts
2026-04-28 23:33 52.15854 -113.73009 23104 ft 366 kts
2026-04-28 23:33 52.18370 -113.72301 22539 ft 363 kts
2026-04-28 23:34 52.20845 -113.71605 21996 ft 362 kts
2026-04-28 23:34 52.23310 -113.70911 21433 ft 359 kts
2026-04-28 23:34 52.25737 -113.70225 20862 ft 357 kts
2026-04-28 23:34 52.28195 -113.69531 20280 ft 354 kts
2026-04-28 23:35 52.30597 -113.68853 19703 ft 352 kts
2026-04-28 23:35 52.32985 -113.68177 19069 ft 350 kts
2026-04-28 23:35 52.35384 -113.67497 18437 ft 347 kts
2026-04-28 23:35 52.37735 -113.66830 17802 ft 344 kts
2026-04-28 23:36 52.40062 -113.66170 17187 ft 340 kts
2026-04-28 23:36 52.42354 -113.65518 16619 ft 334 kts
2026-04-28 23:36 52.44646 -113.64866 16064 ft 330 kts
2026-04-28 23:36 52.46869 -113.64233 15506 ft 327 kts
2026-04-28 23:37 52.49100 -113.63596 14947 ft 323 kts
2026-04-28 23:37 52.51284 -113.62973 14387 ft 320 kts
2026-04-28 23:37 52.53483 -113.62344 13831 ft 316 kts
2026-04-28 23:37 52.55623 -113.61732 13286 ft 313 kts
2026-04-28 23:38 52.57745 -113.61125 12715 ft 311 kts
2026-04-28 23:38 52.59849 -113.60522 12158 ft 308 kts
2026-04-28 23:38 52.61942 -113.59922 11601 ft 305 kts
2026-04-28 23:38 52.64011 -113.59328 11046 ft 302 kts
2026-04-28 23:39 52.66034 -113.58742 10297 ft 275 kts
2026-04-28 23:39 52.67868 -113.58215 9969 ft 268 kts
2026-04-28 23:39 52.69688 -113.57694 9575 ft 265 kts
2026-04-28 23:39 52.71481 -113.57179 9193 ft 262 kts
2026-04-28 23:40 52.73291 -113.56659 8798 ft 262 kts
2026-04-28 23:40 52.75069 -113.56147 8428 ft 262 kts
2026-04-28 23:40 52.76854 -113.55632 8050 ft 262 kts
2026-04-28 23:40 52.78632 -113.55119 7676 ft 260 kts
2026-04-28 23:41 52.80425 -113.54600 7294 ft 260 kts
2026-04-28 23:41 52.82206 -113.54085 6911 ft 259 kts
2026-04-28 23:41 52.83966 -113.53573 6527 ft 258 kts
2026-04-28 23:41 52.85722 -113.53063 6145 ft 257 kts
2026-04-28 23:42 52.87473 -113.52554 5785 ft 255 kts
2026-04-28 23:42 52.89217 -113.52047 5528 ft 255 kts
2026-04-28 23:42 52.90957 -113.51541 5274 ft 256 kts
2026-04-28 23:42 52.92702 -113.51034 5029 ft 255 kts
2026-04-28 23:43 52.94461 -113.50521 4966 ft 254 kts
2026-04-28 23:43 52.96198 -113.50015 4969 ft 254 kts
2026-04-28 23:43 52.97908 -113.49515 4959 ft 243 kts
2026-04-28 23:43 52.99515 -113.49047 4955 ft 228 kts
2026-04-28 23:44 53.01021 -113.48605 4965 ft 213 kts
2026-04-28 23:44 53.02465 -113.48183 5008 ft 211 kts
2026-04-28 23:44 53.03909 -113.47762 4973 ft 212 kts
2026-04-28 23:44 53.05370 -113.47336 4969 ft 213 kts
2026-04-28 23:45 53.06836 -113.46904 4972 ft 212 kts
2026-04-28 23:45 53.08290 -113.46480 4970 ft 213 kts
2026-04-28 23:45 53.09736 -113.46050 4965 ft 212 kts 10°
2026-04-28 23:45 53.11012 -113.44848 4975 ft 215 kts 40°
2026-04-28 23:46 53.12086 -113.43077 4974 ft 218 kts 42°
2026-04-28 23:46 53.13130 -113.41335 4963 ft 203 kts 43°
2026-04-28 23:46 53.14098 -113.39717 4972 ft 196 kts 41°
2026-04-28 23:46 53.15071 -113.38101 4970 ft 198 kts 41°
2026-04-28 23:47 53.16254 -113.37199 4967 ft 189 kts 360°
2026-04-28 23:47 53.17468 -113.37940 4980 ft 193 kts 323°
2026-04-28 23:47 53.18466 -113.39417 4986 ft 193 kts 318°
2026-04-28 23:47 53.19436 -113.40977 4942 ft 194 kts 317°
2026-04-28 23:48 53.20382 -113.42562 4739 ft 192 kts 316°
2026-04-28 23:48 53.21341 -113.44151 4458 ft 192 kts 316°
2026-04-28 23:48 53.22294 -113.45736 4181 ft 196 kts 317°
2026-04-28 23:48 53.23239 -113.47297 3906 ft 191 kts 316°
2026-04-28 23:49 53.24130 -113.48770 3634 ft 166 kts 316°
2026-04-28 23:49 53.24887 -113.50027 3405 ft 140 kts 315°
2026-04-28 23:49 53.25539 -113.51115 3249 ft 127 kts 317°
2026-04-28 23:49 53.26161 -113.52145 3111 ft 128 kts 317°
2026-04-28 23:50 53.26790 -113.53213 2927 ft 128 kts 318°
2026-04-28 23:50 53.27458 -113.54282 2707 ft 139 kts 319°
2026-04-28 23:50 53.28096 -113.55367 2532 ft 127 kts 318°
2026-04-28 23:50 53.28757 -113.56451 2393 ft 128 kts 318°
2026-04-28 23:51 53.29316 -113.57381 2360 ft 93 kts 315°
2026-04-28 23:51 53.29664 -113.57961 2352 ft 48 kts 315°
2026-04-28 23:51 53.29853 -113.58199 2347 ft 29 kts 352°
2026-04-28 23:51 53.30044 -113.58205 2346 ft 25 kts 358°
2026-04-28 23:52 53.30181 -113.58348 2343 ft 22 kts 314°
2026-04-28 23:52 53.30295 -113.58536 2339 ft 23 kts 315°
2026-04-28 23:52 53.30410 -113.58732 2334 ft 24 kts 315°
2026-04-28 23:52 53.30532 -113.58935 2330 ft 24 kts 315°
2026-04-28 23:53 53.30656 -113.59144 2324 ft 25 kts 316°
2026-04-28 23:53 53.30774 -113.59312 2321 ft 18 kts 353°
2026-04-28 23:53 53.30882 -113.59218 2321 ft 17 kts 34°
2026-04-28 23:53 53.30980 -113.59103 2322 ft 16 kts 35°
2026-04-28 23:54 53.31075 -113.58991 2323 ft 16 kts 34°
2026-04-28 23:54 53.31175 -113.58875 2323 ft 18 kts 34°
2026-04-28 23:54 53.31282 -113.58750 2324 ft 19 kts 35°
2026-04-28 23:54 53.31399 -113.58614 2325 ft 21 kts 35°
2026-04-28 23:55 53.31527 -113.58465 2326 ft 21 kts 36°
2026-04-28 23:55 53.31643 -113.58329 2327 ft 19 kts 34°
2026-04-28 23:55 53.31749 -113.58206 2328 ft 17 kts 34°
2026-04-28 23:55 53.31846 -113.58094 2328 ft 16 kts 34°
2026-04-28 23:56 53.31933 -113.57989 2329 ft 14 kts 35°
2026-04-28 23:56 53.32014 -113.57897 2329 ft 13 kts 34°
2026-04-28 23:56 53.32092 -113.57806 2329 ft 14 kts 35°
2026-04-28 23:56 53.32192 -113.57689 2330 ft 20 kts 34°
2026-04-28 23:57 53.32327 -113.57531 2331 ft 24 kts 35°
2026-04-28 23:57 53.32459 -113.57378 2332 ft 22 kts 34°
2026-04-28 23:57 53.32585 -113.57231 2332 ft 20 kts 34°
2026-04-28 23:57 53.32682 -113.57114 2334 ft 17 kts 49°
2026-04-28 23:58 53.32663 -113.56948 2337 ft 15 kts 123°
2026-04-28 23:58 53.32605 -113.56815 2339 ft 12 kts 124°
2026-04-28 23:58 53.32563 -113.56711 2341 ft 9 kts 123°
2026-04-28 23:58 53.32532 -113.56705 2342 ft 5 kts 250°
2026-04-28 23:59 53.32542 -113.56734 2341 ft 0 kts 315°